Weather History for Wadena, MN

Change the Weather History Date:

Friday, January 6, 2012

  Actual Average Record
Temperature  
Mean Temperature 34 °F -  
Max Temperature 41 °F 15 °F 41 °F (1933)
Min Temperature 28 °F -3 °F -33 °F (1968)
Degree Days  
Heating Degree Days 30    
Moisture  
Dew Point 26 °F    
Average Humidity 74    
Maximum Humidity 93    
Minimum Humidity 60    
Precipitation  
Precipitation 0.00 in - - ()
Sea Level Pressure  
Sea Level Pressure 29.69 in    
Wind  
Wind Speed 13 mph (West)    
Max Wind Speed 21 mph    
Max Gust Speed 29 mph    
Visibility 10 miles    
Events Snow    
Averages and records for this station are not official NWS values.
T = Trace of Precipitation, MM = Missing Value Source: NWS Daily Summary

Daily Weather History Graph

Daily Weather History Graph

Search for Another Location

Airport:

Trip Planner

Search our weather history database for the weather conditions in past years. The results will help you decide how hot, cold, wet, or windy it might be!

Date:

Astronomy

Jan. 06, 2012 Rise Set
Actual Time 8:04 AM CST 4:49 PM CST
Civil Twilight 7:29 AM CST 5:23 PM CST
Nautical Twilight 6:51 AM CST 6:01 PM CST
Astronomical Twilight 6:15 AM CST 6:38 PM CST
Moon 2:39 PM CST (1/6) 5:46 AM CST (1/6)
Length of Visible Light 9h 54m
Length of Day
8h 45m
Waxing Gibbous, 93% of the Moon is Illuminated
Jan 6
Waxing Gibbous
Jan 9
Full
Jan 16
Last Quarter
Jan 23
New
Jan 30
First Quarter

Hourly Weather History & Observations

Time (CST) Temp. Windchill Dew Point Humidity Pressure Visibility Wind Dir Wind Speed Gust Speed Precip Events Conditions
12:15 AM 41.0 °F 32.8 °F 28.4 °F 61% 29.56 in 10.0 mi West 16.1 mph 24.2 mph N/A   Clear
12:35 AM 39.2 °F 30.8 °F 28.4 °F 65% 29.57 in 10.0 mi West 15.0 mph 25.3 mph N/A   Clear
12:52 AM 39.2 °F 30.8 °F 28.4 °F 65% 29.58 in 10.0 mi West 15.0 mph 26.5 mph N/A   Clear
1:15 AM 37.4 °F 27.8 °F 28.4 °F 70% 29.58 in 10.0 mi WNW 17.3 mph 25.3 mph N/A   Clear
1:35 AM 37.4 °F 28.5 °F 28.4 °F 70% 29.59 in 10.0 mi WNW 15.0 mph 21.9 mph N/A   Clear
1:53 AM 37.4 °F 28.9 °F 28.4 °F 70% 29.60 in 10.0 mi West 13.8 mph 19.6 mph N/A   Clear
2:15 AM 35.6 °F 27.1 °F 28.4 °F 75% 29.61 in 10.0 mi West 12.7 mph 19.6 mph N/A   Clear
2:35 AM 35.6 °F 25.9 °F 28.4 °F 75% 29.61 in 10.0 mi West 16.1 mph 21.9 mph N/A   Clear
2:52 AM 35.6 °F 26.2 °F 28.4 °F 75% 29.62 in 10.0 mi West 15.0 mph 20.7 mph N/A   Clear
3:15 AM 35.6 °F 27.1 °F 28.4 °F 75% 29.62 in 10.0 mi West 12.7 mph 18.4 mph N/A   Clear
3:35 AM 33.8 °F 25.3 °F 26.6 °F 75% 29.63 in 10.0 mi West 11.5 mph - N/A   Clear
3:52 AM 33.8 °F 25.3 °F 26.6 °F 75% 29.62 in 10.0 mi West 11.5 mph 16.1 mph N/A   Clear
4:14 AM 33.8 °F 25.8 °F 26.6 °F 75% 29.63 in 10.0 mi West 10.4 mph 16.1 mph N/A   Clear
4:35 AM 33.8 °F 25.8 °F 26.6 °F 75% 29.62 in 10.0 mi West 10.4 mph 16.1 mph N/A   Clear
4:52 AM 33.8 °F 27.0 °F 26.6 °F 75% 29.62 in 10.0 mi West 8.1 mph - N/A   Clear
5:15 AM 33.8 °F 26.4 °F 26.6 °F 75% 29.62 in 10.0 mi West 9.2 mph - N/A   Clear
5:35 AM 33.8 °F 26.4 °F 26.6 °F 75% 29.63 in 10.0 mi West 9.2 mph - N/A   Clear
5:53 AM 32.0 °F 23.6 °F 24.8 °F 75% 29.64 in 10.0 mi West 10.4 mph - N/A   Clear
6:14 AM 30.2 °F 21.3 °F 24.8 °F 80% 29.65 in 10.0 mi West 10.4 mph - N/A   Clear
6:34 AM 30.2 °F 21.9 °F 24.8 °F 80% 29.66 in 10.0 mi West 9.2 mph - N/A   Clear
6:53 AM 30.2 °F 21.9 °F 24.8 °F 80% 29.66 in 10.0 mi West 9.2 mph - N/A   Clear
7:15 AM 30.2 °F 22.6 °F 24.8 °F 80% - 10.0 mi West 8.1 mph - N/A   Clear
7:34 AM 30.2 °F 22.6 °F 24.8 °F 80% 29.66 in 10.0 mi West 8.1 mph - N/A   Clear
7:53 AM 30.2 °F 22.6 °F 24.8 °F 80% 29.67 in 10.0 mi West 8.1 mph - N/A   Clear
8:15 AM 28.4 °F 20.4 °F 23.0 °F 80% 29.67 in 10.0 mi West 8.1 mph - N/A   Clear
8:34 AM 28.4 °F 19.7 °F 23.0 °F 80% 29.68 in 10.0 mi West 9.2 mph - N/A   Clear
8:53 AM 30.2 °F 21.3 °F 24.8 °F 80% 29.69 in 10.0 mi West 10.4 mph - N/A   Clear
9:15 AM 30.2 °F 20.2 °F 24.8 °F 80% 29.70 in 10.0 mi WSW 12.7 mph - N/A   Clear
9:35 AM 32.0 °F 22.5 °F 24.8 °F 75% 29.71 in 10.0 mi West 12.7 mph - N/A   Clear
9:53 AM 33.8 °F 24.8 °F 24.8 °F 70% 29.71 in 10.0 mi West 12.7 mph 18.4 mph N/A   Clear
10:14 AM 33.8 °F 24.8 °F 24.8 °F 70% 29.72 in 10.0 mi West 12.7 mph 16.1 mph N/A   Clear
10:35 AM 35.6 °F 26.2 °F 24.8 °F 65% 29.72 in 10.0 mi West 15.0 mph - N/A   Clear
10:53 AM 35.6 °F 26.6 °F 24.8 °F 65% 29.72 in 10.0 mi West 13.8 mph 19.6 mph N/A   Clear
11:15 AM 35.6 °F 25.9 °F 24.8 °F 65% 29.72 in 10.0 mi West 16.1 mph 23.0 mph N/A   Clear
11:53 AM 37.4 °F 28.5 °F 24.8 °F 60% 29.71 in 10.0 mi West 15.0 mph 19.6 mph N/A   Clear
12:15 PM 37.4 °F 28.9 °F 24.8 °F 60% 29.71 in 10.0 mi West 13.8 mph 20.7 mph N/A   Clear
12:35 PM 37.4 °F 29.3 °F 24.8 °F 60% 29.70 in 10.0 mi West 12.7 mph 23.0 mph N/A   Clear
12:53 PM 37.4 °F 27.2 °F 24.8 °F 60% 29.70 in 10.0 mi West 19.6 mph 28.8 mph N/A   Clear
1:15 PM 37.4 °F 28.5 °F 24.8 °F 60% 29.69 in 10.0 mi West 15.0 mph 27.6 mph N/A   Clear
1:35 PM 37.4 °F 27.8 °F 24.8 °F 60% 29.69 in 10.0 mi West 17.3 mph 26.5 mph N/A   Clear
1:53 PM 37.4 °F 28.5 °F 24.8 °F 60% 29.68 in 10.0 mi West 15.0 mph 28.8 mph N/A   Clear
2:14 PM 37.4 °F 27.5 °F 24.8 °F 60% 29.69 in 10.0 mi West 18.4 mph 26.5 mph N/A   Clear
2:35 PM 37.4 °F 28.2 °F 24.8 °F 60% 29.69 in 10.0 mi West 16.1 mph 26.5 mph N/A   Scattered Clouds
2:53 PM 37.4 °F 27.5 °F 24.8 °F 60% 29.69 in 10.0 mi West 18.4 mph 26.5 mph N/A   Scattered Clouds
3:14 PM 35.6 °F 25.9 °F 24.8 °F 65% 29.70 in 10.0 mi West 16.1 mph 27.6 mph N/A   Scattered Clouds
3:35 PM 35.6 °F 26.6 °F 24.8 °F 65% 29.71 in 10.0 mi West 13.8 mph 23.0 mph N/A   Mostly Cloudy
3:53 PM 35.6 °F 24.5 °F 24.8 °F 65% 29.72 in 10.0 mi West 20.7 mph 26.5 mph N/A   Overcast
4:15 PM 35.6 °F 27.1 °F 24.8 °F 65% 29.73 in 10.0 mi West 12.7 mph 25.3 mph N/A   Overcast
4:53 PM 32.0 °F 23.0 °F 26.6 °F 80% 29.75 in 10.0 mi WNW 11.5 mph 17.3 mph N/A   Overcast
5:14 PM 30.2 °F 22.6 °F 28.4 °F 93% 29.76 in 7.0 mi WNW 8.1 mph - N/A Snow Light Snow
5:35 PM 32.0 °F 23.6 °F 28.4 °F 87% 29.76 in 10.0 mi WNW 10.4 mph 20.7 mph N/A   Overcast
5:53 PM 32.0 °F 23.6 °F 28.4 °F 87% 29.77 in 10.0 mi West 10.4 mph 16.1 mph N/A   Overcast
6:15 PM 32.0 °F 22.1 °F 26.6 °F 80% 29.77 in 5.0 mi West 13.8 mph 21.9 mph N/A Snow Light Snow
6:35 PM 30.2 °F 19.8 °F 28.4 °F 93% 29.78 in 10.0 mi West 13.8 mph 24.2 mph N/A Snow Light Snow
6:53 PM 30.2 °F 20.2 °F 28.4 °F 93% 29.78 in 10.0 mi West 12.7 mph 19.6 mph N/A Snow Light Snow
7:14 PM 30.2 °F 20.2 °F 28.4 °F 93% 29.79 in 10.0 mi WNW 12.7 mph 23.0 mph N/A Snow Light Snow
7:35 PM 30.2 °F 20.2 °F 28.4 °F 93% 29.80 in 10.0 mi WNW 12.7 mph 20.7 mph N/A   Overcast
7:52 PM 30.2 °F 19.8 °F 28.4 °F 93% 29.81 in 10.0 mi WNW 13.8 mph 17.3 mph N/A   Overcast
8:14 PM 30.2 °F 18.1 °F 28.4 °F 93% 29.81 in 7.0 mi WNW 18.4 mph 23.0 mph N/A Snow Light Snow
8:35 PM 30.2 °F 19.8 °F 26.6 °F 86% 29.82 in 10.0 mi NW 13.8 mph - N/A   Overcast
8:52 PM 28.4 °F 15.8 °F 24.8 °F 86% 29.84 in 10.0 mi NW 18.4 mph 27.6 mph N/A   Overcast
9:14 PM 26.6 °F 12.7 °F 21.2 °F 80% 29.85 in 10.0 mi NW 20.7 mph 31.1 mph N/A   Overcast
9:35 PM 26.6 °F 13.8 °F 21.2 °F 80% 29.86 in 10.0 mi NW 17.3 mph 24.2 mph N/A   Overcast
9:52 PM 26.6 °F 16.2 °F 21.2 °F 80% 29.87 in 10.0 mi NW 11.5 mph - N/A   Overcast
10:15 PM 26.6 °F 13.8 °F 19.4 °F 74% 29.87 in 10.0 mi NW 17.3 mph 25.3 mph N/A   Overcast
10:35 PM 24.8 °F 11.9 °F 19.4 °F 80% 29.87 in 10.0 mi NW 16.1 mph 25.3 mph N/A   Overcast
10:52 PM 24.8 °F 12.9 °F 19.4 °F 80% 29.88 in 10.0 mi NW 13.8 mph 23.0 mph N/A   Overcast
11:15 PM 24.8 °F 12.9 °F 19.4 °F 80% 29.89 in 10.0 mi NNW 13.8 mph 24.2 mph N/A   Overcast
11:35 PM 24.8 °F 11.5 °F 17.6 °F 74% 29.90 in 10.0 mi NNW 17.3 mph - N/A   Overcast
11:52 PM 24.8 °F 12.4 °F 17.6 °F 74% 29.90 in 10.0 mi NNW 15.0 mph 24.2 mph N/A   Overcast